WN8IZV Weather Reports


Display with metric or nautical units.
time (UTC)temp
F
wind
direction
speed
MPH
gust
MPH
rain 1hr
in
rain 24hr
in
rain mn
in
humidity
%
barometer
mb
20260503211522 64 187 3.0 10.0 0.00 0.00 0.00 67 1009.4
20260503210020 63 247 3.0 11.0 0.00 0.00 0.00 67 1009.4
20260503204525 63 208 3.0 11.0 0.00 0.00 0.00 67 1009.4
20260503203016 64 267 1.0 9.0 0.00 0.00 0.00 68 1009.6
20260503201511 64 188 3.0 10.0 0.00 0.00 0.00 68 1009.7
20260503200009 64 241 3.0 11.0 0.00 0.00 0.00 68 1009.7
20260503194502 64 281 3.0 8.0 0.00 0.00 0.00 68 1010.0
20260503193112 63 229 4.0 9.0 0.00 0.00 0.00 68 1010.2
20260503191605 64 202 4.0 12.0 0.00 0.00 0.00 68 1010.2
20260503190054 66 251 2.0 15.0 0.00 0.00 0.00 69 1010.6
20260503184548 64 141 3.0 9.0 0.00 0.00 0.00 69 1010.8
20260503183106 64 347 3.0 12.0 0.00 0.00 0.00 69 1011.0
20260503181558 64 226 6.0 15.0 0.00 0.00 0.00 69 1011.2
20260503180041 62 319 2.0 8.0 0.00 0.00 0.00 69 1011.5
20260503174536 64 233 2.0 8.0 0.00 0.00 0.00 69 1011.6
20260503173034 63 269 3.0 13.0 0.00 0.00 0.00 69 1011.8
20260503171530 62 238 2.0 11.0 0.00 0.00 0.00 69 1012.1
20260503081507 36 259 0.0 0.0 0.00 0.00 0.00 68 1015.4
20260503071606 37 193 0.0 0.0 0.00 0.00 0.00 69 1015.6
20260503070112 37 217 0.0 0.0 0.00 0.00 0.00 69 1015.5
20260503060106 38 211 0.0 3.0 0.00 0.00 0.00 69 1015.8
20260503054543 38 171 0.0 0.0 0.00 0.00 0.00 69 1015.9
20260503053037 38 218 0.0 1.0 0.00 0.00 0.00 69 1016.0
20260503051534 38 212 0.0 0.0 0.00 0.00 0.00 69 1016.1
20260503050032 37 125 0.0 0.0 0.00 0.00 0.00 69 1016.3
20260503044535 37 284 0.0 1.0 0.00 0.00 0.00 68 1016.2
20260503043019 35 284 0.0 1.0 0.00 0.00 0.00 68 1016.2
20260503041515 35 284 0.0 0.0 0.00 0.00 0.00 68 1016.2
20260503040012 35 284 0.0 0.0 0.00 0.00 0.00 67 1016.3
20260503034508 35 284 0.0 0.0 0.00 0.00 0.00 67 1016.3
20260503033004 35 283 0.0 0.0 0.00 0.00 0.00 67 1016.4
20260503031503 36 284 0.0 0.0 0.00 0.00 0.00 67 1016.5
20260503030000 35 284 0.0 0.0 0.00 0.00 0.00 67 1016.5
20260503024600 35 284 0.0 0.0 0.00 0.00 0.00 66 1016.7
20260503023100 35 284 0.0 0.0 0.00 0.00 0.00 66 1016.9
20260503021554 36 283 0.0 0.0 0.00 0.00 0.00 66 1016.9
20260503020050 37 284 0.0 0.0 0.00 0.00 0.00 66 1016.7
20260503014545 37 284 0.0 0.0 0.00 0.00 0.00 66 1016.8
20260503013049 38 284 0.0 0.0 0.00 0.00 0.00 67 1016.8
20260503011538 40 284 0.0 0.0 0.00 0.00 0.00 67 1016.7
20260503010029 42 284 0.0 0.0 0.00 0.00 0.00 67 1016.7
20260503004527 44 284 0.0 1.0 0.00 0.01 0.00 68 1016.5
20260503003025 46 284 0.0 1.0 0.00 0.01 0.00 68 1016.5
20260503001524 47 262 0.0 2.0 0.00 0.01 0.00 69 1016.3
20260503000022 47 1 0.0 3.0 0.00 0.01 0.00 69 1016.4
20260502234522 48 236 0.0 3.0 0.00 0.01 0.00 69 1016.4
20260502233021 47 274 1.0 6.0 0.00 0.01 0.00 69 1016.5
20260502231520 47 276 1.0 5.0 0.00 0.01 0.00 69 1016.5
20260502230024 48 312 1.0 4.0 0.00 0.01 0.00 69 1016.5
20260502224518 47 323 2.0 4.0 0.00 0.01 0.00 69 1016.5
20260502223018 48 34 0.0 6.0 0.00 0.01 0.00 69 1016.5
20260502221517 48 333 1.0 6.0 0.00 0.01 0.00 69 1016.5
20260502220016 48 265 0.0 4.0 0.00 0.01 0.00 69 1016.6
20260502214524 47 333 2.0 7.0 0.00 0.01 0.00 69 1016.7
20260502213015 48 333 1.0 4.0 0.00 0.01 0.00 70 1016.6